Time,TemperatureF,DewpointF,PressureIn,WindDirection,WindDirectionDegrees,WindSpeedMPH,WindSpeedGustMPH,Humidity,HourlyPrecipIn,Conditions,Clouds,dailyrainin,SoftwareType,DateUTC
2013-08-09 00:00:00,71.5,69.1,29.97,SSE,148,1.0,2.0,92,0.00,,,0.00,WeatherCatV1.21B27,2013-08-09 04:00:00,
2013-08-09 00:01:00,71.5,69.1,29.97,SSE,148,0.0,2.0,92,0.00,,,0.00,WeatherCatV1.21B27,2013-08-09 04:01:00,
2013-08-09 00:06:00,71.5,69.1,29.97,SSE,157,0.0,1.0,92,0.00,,,0.00,WeatherCatV1.21B27,2013-08-09 04:06:00,
2013-08-09 00:11:00,71.5,69.1,29.97,SE,129,2.0,2.0,92,0.00,,,0.00,WeatherCatV1.21B27,2013-08-09 04:11:00,
2013-08-09 00:16:00,71.5,69.1,29.97,SE,138,0.0,1.0,92,0.00,,,0.00,WeatherCatV1.21B27,2013-08-09 04:16:00,
2013-08-09 00:21:00,71.5,69.1,29.97,SE,138,0.0,0.0,92,0.00,,,0.00,WeatherCatV1.21B27,2013-08-09 04:21:00,
2013-08-09 00:26:00,71.5,69.1,29.96,SE,146,0.0,3.0,92,0.00,,,0.00,WeatherCatV1.21B27,2013-08-09 04:26:00,
2013-08-09 00:31:00,71.5,69.1,29.96,SSE,152,1.0,4.0,92,0.00,,,0.00,WeatherCatV1.21B27,2013-08-09 04:31:00,
2013-08-09 00:36:00,71.5,69.1,29.96,SSE,152,0.0,0.0,92,0.00,,,0.00,WeatherCatV1.21B27,2013-08-09 04:36:00,
2013-08-09 00:41:00,71.5,69.1,29.96,SE,127,1.0,3.0,92,0.00,,,0.00,WeatherCatV1.21B27,2013-08-09 04:41:00,
2013-08-09 00:46:00,71.5,69.1,29.96,South,178,1.0,1.0,92,0.00,,,0.00,WeatherCatV1.21B27,2013-08-09 04:46:00,
2013-08-09 00:51:00,71.5,69.1,29.96,SSE,148,0.0,0.0,92,0.00,,,0.00,WeatherCatV1.21B27,2013-08-09 04:51:00,
2013-08-09 00:56:00,71.6,69.2,29.96,SSW,198,0.0,2.0,92,0.00,,,0.00,WeatherCatV1.21B27,2013-08-09 04:56:00,
2013-08-09 01:01:00,71.6,69.2,29.96,West,261,1.0,2.0,92,0.00,,,0.00,WeatherCatV1.21B27,2013-08-09 05:01:00,
2013-08-09 01:06:00,71.7,69.2,29.97,SSW,209,0.0,5.0,92,0.00,,,0.00,WeatherCatV1.21B27,2013-08-09 05:06:00,
2013-08-09 01:11:00,71.7,69.2,29.97,WSW,242,0.0,4.0,92,0.00,,,0.00,WeatherCatV1.21B27,2013-08-09 05:11:00,
2013-08-09 01:16:00,71.7,69.2,29.96,NNW,338,0.0,1.0,92,0.00,,,0.00,WeatherCatV1.21B27,2013-08-09 05:16:00,
2013-08-09 01:21:00,71.7,69.2,29.96,WNW,290,0.0,1.0,92,0.00,,,0.00,WeatherCatV1.21B27,2013-08-09 05:21:00,
2013-08-09 01:26:00,71.7,69.2,29.96,SE,135,3.0,3.0,92,0.00,,,0.00,WeatherCatV1.21B27,2013-08-09 05:26:00,
2013-08-09 01:31:00,71.8,69.3,29.96,ESE,117,1.0,3.0,92,0.00,,,0.00,WeatherCatV1.21B27,2013-08-09 05:31:00,
2013-08-09 01:36:00,71.9,69.1,29.97,SSE,161,0.0,2.0,91,0.00,,,0.00,WeatherCatV1.21B27,2013-08-09 05:36:00,
2013-08-09 01:41:00,71.9,69.1,29.96,South,174,1.0,2.0,91,0.00,,,0.00,WeatherCatV1.21B27,2013-08-09 05:41:00,
2013-08-09 01:46:00,72.0,69.2,29.96,SSW,198,0.0,2.0,91,0.00,,,0.00,WeatherCatV1.21B27,2013-08-09 05:46:00,
2013-08-09 01:51:00,72.0,69.2,29.96,SSW,192,0.0,1.0,91,0.00,,,0.00,WeatherCatV1.21B27,2013-08-09 05:51:00,
2013-08-09 01:56:00,72.0,69.2,29.96,ESE,121,0.0,3.0,91,0.00,,,0.00,WeatherCatV1.21B27,2013-08-09 05:56:00,
2013-08-09 02:01:00,72.1,69.3,29.95,SSE,152,2.0,3.0,91,0.00,,,0.00,WeatherCatV1.21B27,2013-08-09 06:01:00,
2013-08-09 02:06:00,72.1,69.3,29.96,SE,132,1.0,3.0,91,0.00,,,0.00,WeatherCatV1.21B27,2013-08-09 06:06:00,
2013-08-09 02:11:00,72.1,69.3,29.95,SSE,151,0.0,5.0,91,0.00,,,0.00,WeatherCatV1.21B27,2013-08-09 06:11:00,
2013-08-09 02:16:00,72.1,69.3,29.95,South,173,0.0,2.0,91,0.00,,,0.00,WeatherCatV1.21B27,2013-08-09 06:16:00,
2013-08-09 02:21:00,72.1,69.3,29.94,South,175,0.0,2.0,91,0.00,,,0.00,WeatherCatV1.21B27,2013-08-09 06:21:00,
2013-08-09 02:26:00,72.2,69.4,29.94,SE,142,0.0,2.0,91,0.00,,,0.00,WeatherCatV1.21B27,2013-08-09 06:26:00,
2013-08-09 02:31:00,72.2,69.4,29.94,South,172,0.0,3.0,91,0.00,,,0.00,WeatherCatV1.21B27,2013-08-09 06:31:00,
2013-08-09 02:36:00,72.2,69.1,29.94,South,169,0.0,1.0,90,0.00,,,0.00,WeatherCatV1.21B27,2013-08-09 06:36:00,
2013-08-09 02:41:00,72.1,69.3,29.94,SSE,151,0.0,2.0,91,0.00,,,0.00,WeatherCatV1.21B27,2013-08-09 06:41:00,
2013-08-09 02:46:00,72.1,69.3,29.94,SSW,194,0.0,1.0,91,0.00,,,0.00,WeatherCatV1.21B27,2013-08-09 06:46:00,
2013-08-09 02:51:00,72.1,69.3,29.94,SE,140,0.0,2.0,91,0.00,,,0.00,WeatherCatV1.21B27,2013-08-09 06:51:00,
2013-08-09 02:56:00,72.1,69.3,29.94,SSE,165,0.0,1.0,91,0.00,,,0.00,WeatherCatV1.21B27,2013-08-09 06:56:00,
2013-08-09 03:01:00,72.1,69.3,29.94,South,171,0.0,1.0,91,0.00,,,0.00,WeatherCatV1.21B27,2013-08-09 07:01:00,
2013-08-09 03:06:00,72.0,69.2,29.94,SSE,152,0.0,3.0,91,0.00,,,0.00,WeatherCatV1.21B27,2013-08-09 07:06:00,
2013-08-09 03:11:00,72.0,69.2,29.94,SSE,153,0.0,2.0,91,0.00,,,0.00,WeatherCatV1.21B27,2013-08-09 07:11:00,
2013-08-09 03:16:00,72.0,69.2,29.94,SSE,150,0.0,2.0,91,0.00,,,0.00,WeatherCatV1.21B27,2013-08-09 07:16:00,
2013-08-09 03:21:00,71.9,69.1,29.94,SSW,198,2.0,2.0,91,0.00,,,0.00,WeatherCatV1.21B27,2013-08-09 07:21:00,
2013-08-09 03:26:00,71.9,69.1,29.94,SSE,153,0.0,2.0,91,0.00,,,0.00,WeatherCatV1.21B27,2013-08-09 07:26:00,
2013-08-09 03:31:00,71.9,69.1,29.94,SSE,165,1.0,3.0,91,0.00,,,0.00,WeatherCatV1.21B27,2013-08-09 07:31:00,
2013-08-09 03:36:00,72.0,69.2,29.94,SSE,164,0.0,2.0,91,0.00,,,0.00,WeatherCatV1.21B27,2013-08-09 07:36:00,
2013-08-09 03:41:00,71.9,69.1,29.94,SE,136,0.0,1.0,91,0.00,,,0.00,WeatherCatV1.21B27,2013-08-09 07:41:00,
2013-08-09 03:46:00,71.9,69.1,29.94,ESE,107,0.0,2.0,91,0.00,,,0.00,WeatherCatV1.21B27,2013-08-09 07:46:00,
2013-08-09 03:51:00,71.9,69.1,29.94,South,170,1.0,2.0,91,0.00,,,0.00,WeatherCatV1.21B27,2013-08-09 07:51:00,
2013-08-09 03:56:00,71.9,69.1,29.94,South,187,0.0,1.0,91,0.00,,,0.00,WeatherCatV1.21B27,2013-08-09 07:56:00,
2013-08-09 04:01:00,71.8,69.0,29.93,South,186,0.0,1.0,91,0.00,,,0.00,WeatherCatV1.21B27,2013-08-09 08:01:00,
2013-08-09 04:06:00,71.8,69.0,29.93,SE,139,0.0,0.0,91,0.00,,,0.00,WeatherCatV1.21B27,2013-08-09 08:06:00,
2013-08-09 04:11:00,71.8,69.0,29.94,SE,142,1.0,2.0,91,0.00,,,0.00,WeatherCatV1.21B27,2013-08-09 08:11:00,
2013-08-09 04:16:00,71.8,69.0,29.93,SW,215,1.0,1.0,91,0.00,,,0.00,WeatherCatV1.21B27,2013-08-09 08:16:00,
2013-08-09 04:21:00,71.7,69.2,29.93,ESE,121,1.0,1.0,92,0.00,,,0.00,WeatherCatV1.21B27,2013-08-09 08:21:00,
2013-08-09 04:26:00,71.7,69.2,29.93,SSE,164,1.0,3.0,92,0.00,,,0.00,WeatherCatV1.21B27,2013-08-09 08:26:00,
2013-08-09 04:31:00,71.7,69.2,29.93,SSE,148,1.0,1.0,92,0.00,,,0.00,WeatherCatV1.21B27,2013-08-09 08:31:00,
2013-08-09 04:36:00,71.7,69.2,29.93,SE,126,0.0,1.0,92,0.00,,,0.00,WeatherCatV1.21B27,2013-08-09 08:36:00,
2013-08-09 04:41:00,71.7,69.2,29.93,SSE,161,1.0,2.0,92,0.00,,,0.00,WeatherCatV1.21B27,2013-08-09 08:41:00,
2013-08-09 04:46:00,71.8,69.3,29.93,SSE,157,0.0,3.0,92,0.00,,,0.00,WeatherCatV1.21B27,2013-08-09 08:46:00,
2013-08-09 04:51:00,71.8,69.3,29.93,SSE,157,2.0,3.0,92,0.00,,,0.00,WeatherCatV1.21B27,2013-08-09 08:51:00,
2013-08-09 04:56:00,71.8,69.3,29.93,SSE,148,1.0,2.0,92,0.00,,,0.00,WeatherCatV1.21B27,2013-08-09 08:56:00,
2013-08-09 05:01:00,71.9,69.1,29.93,SSE,150,1.0,3.0,91,0.00,,,0.00,WeatherCatV1.21B27,2013-08-09 09:01:00,
2013-08-09 05:06:00,71.9,69.4,29.93,SSE,161,0.0,2.0,92,0.00,,,0.00,WeatherCatV1.21B27,2013-08-09 09:06:00,
2013-08-09 05:11:00,71.9,69.4,29.93,SSE,161,0.0,1.0,92,0.00,,,0.00,WeatherCatV1.21B27,2013-08-09 09:11:00,
2013-08-09 05:16:00,71.9,69.1,29.93,SSE,164,1.0,1.0,91,0.00,,,0.00,WeatherCatV1.21B27,2013-08-09 09:16:00,
2013-08-09 05:21:00,72.0,69.5,29.93,SSE,166,2.0,2.0,92,0.00,,,0.00,WeatherCatV1.21B27,2013-08-09 09:21:00,
2013-08-09 05:26:00,72.0,69.5,29.93,WSW,240,1.0,2.0,92,0.00,,,0.00,WeatherCatV1.21B27,2013-08-09 09:26:00,
2013-08-09 05:31:00,72.1,69.6,29.93,SW,214,0.0,3.0,92,0.00,,,0.00,WeatherCatV1.21B27,2013-08-09 09:31:00,
2013-08-09 05:36:00,72.1,69.6,29.93,SE,131,1.0,3.0,92,0.00,,,0.00,WeatherCatV1.21B27,2013-08-09 09:36:00,
2013-08-09 05:41:00,72.1,69.3,29.93,SSE,160,3.0,3.0,91,0.00,,,0.00,WeatherCatV1.21B27,2013-08-09 09:41:00,
2013-08-09 05:46:00,72.2,69.4,29.92,SE,125,0.0,3.0,91,0.00,,,0.00,WeatherCatV1.21B27,2013-08-09 09:46:00,
2013-08-09 05:51:00,72.2,69.4,29.92,South,171,0.0,3.0,91,0.00,,,0.00,WeatherCatV1.21B27,2013-08-09 09:51:00,
2013-08-09 05:56:00,72.2,69.4,29.92,South,169,0.0,1.0,91,0.00,,,0.00,WeatherCatV1.21B27,2013-08-09 09:56:00,
2013-08-09 06:01:00,72.2,69.4,29.92,ESE,121,1.0,3.0,91,0.00,,,0.00,WeatherCatV1.21B27,2013-08-09 10:01:00,
2013-08-09 06:06:00,72.3,69.5,29.92,SSE,163,0.0,3.0,91,0.00,,,0.00,WeatherCatV1.21B27,2013-08-09 10:06:00,
2013-08-09 06:11:00,72.3,69.5,29.93,SSE,163,0.0,1.0,91,0.00,,,0.00,WeatherCatV1.21B27,2013-08-09 10:11:00,
2013-08-09 06:16:00,72.4,69.6,29.92,SE,141,2.0,2.0,91,0.00,,,0.00,WeatherCatV1.21B27,2013-08-09 10:16:00,
2013-08-09 06:21:00,72.3,69.5,29.93,SE,137,0.0,2.0,91,0.00,,,0.00,WeatherCatV1.21B27,2013-08-09 10:21:00,
2013-08-09 06:26:00,72.4,69.6,29.92,South,170,1.0,2.0,91,0.00,,,0.00,WeatherCatV1.21B27,2013-08-09 10:26:00,
2013-08-09 06:31:00,72.4,69.6,29.93,South,169,0.0,3.0,91,0.00,,,0.00,WeatherCatV1.21B27,2013-08-09 10:31:00,
2013-08-09 06:36:00,72.4,69.6,29.93,SE,133,2.0,3.0,91,0.00,,,0.00,WeatherCatV1.21B27,2013-08-09 10:36:00,
2013-08-09 06:41:00,72.4,69.6,29.93,South,180,1.0,2.0,91,0.00,,,0.00,WeatherCatV1.21B27,2013-08-09 10:41:00,
2013-08-09 06:46:00,72.5,69.7,29.93,SE,128,0.0,4.0,91,0.00,,,0.00,WeatherCatV1.21B27,2013-08-09 10:46:00,
2013-08-09 06:51:00,72.5,69.7,29.93,SSE,159,2.0,3.0,91,0.00,,,0.00,WeatherCatV1.21B27,2013-08-09 10:51:00,
2013-08-09 06:56:00,72.6,69.8,29.93,SSE,159,0.0,5.0,91,0.00,,,0.00,WeatherCatV1.21B27,2013-08-09 10:56:00,
2013-08-09 07:01:00,72.6,69.8,29.93,SW,220,1.0,5.0,91,0.00,,,0.00,WeatherCatV1.21B27,2013-08-09 11:01:00,
2013-08-09 07:06:00,72.7,69.9,29.93,SSW,194,1.0,8.0,91,0.00,,,0.00,WeatherCatV1.21B27,2013-08-09 11:06:00,
2013-08-09 07:11:00,72.7,69.9,29.93,SSE,148,1.0,3.0,91,0.00,,,0.00,WeatherCatV1.21B27,2013-08-09 11:11:00,
2013-08-09 07:16:00,72.8,70.0,29.93,SE,124,0.0,3.0,91,0.00,,,0.00,WeatherCatV1.21B27,2013-08-09 11:16:00,
2013-08-09 07:21:00,72.9,70.1,29.93,West,263,1.0,3.0,91,0.00,,,0.00,WeatherCatV1.21B27,2013-08-09 11:21:00,
2013-08-09 07:26:00,72.9,69.8,29.93,SSE,149,0.0,2.0,90,0.00,,,0.00,WeatherCatV1.21B27,2013-08-09 11:26:00,
2013-08-09 07:31:00,73.0,69.9,29.93,SW,236,2.0,8.0,90,0.00,,,0.00,WeatherCatV1.21B27,2013-08-09 11:31:00,
2013-08-09 07:36:00,73.0,69.9,29.93,ESE,119,1.0,5.0,90,0.00,,,0.00,WeatherCatV1.21B27,2013-08-09 11:36:00,
2013-08-09 07:41:00,73.1,70.0,29.93,SW,220,0.0,1.0,90,0.00,,,0.00,WeatherCatV1.21B27,2013-08-09 11:41:00,
2013-08-09 07:46:00,73.1,70.0,29.93,SW,220,0.0,1.0,90,0.00,,,0.00,WeatherCatV1.21B27,2013-08-09 11:46:00,
2013-08-09 07:51:00,73.0,70.2,29.93,WNW,299,0.0,2.0,91,0.00,,,0.00,WeatherCatV1.21B27,2013-08-09 11:51:00,
2013-08-09 07:56:00,72.9,70.1,29.93,WNW,298,0.0,2.0,91,0.00,,,0.00,WeatherCatV1.21B27,2013-08-09 11:56:00,
2013-08-09 08:01:00,72.8,70.3,29.93,WNW,298,0.0,1.0,92,0.00,,,0.00,WeatherCatV1.21B27,2013-08-09 12:01:00,
2013-08-09 08:06:00,72.7,70.2,29.92,WNW,297,0.0,0.0,92,0.00,,,0.00,WeatherCatV1.21B27,2013-08-09 12:06:00,
2013-08-09 08:11:00,72.6,70.1,29.92,SE,127,0.0,1.0,92,0.00,,,0.00,WeatherCatV1.21B27,2013-08-09 12:11:00,
2013-08-09 08:16:00,72.6,70.1,29.92,NNW,340,0.0,2.0,92,0.00,,,0.00,WeatherCatV1.21B27,2013-08-09 12:16:00,
2013-08-09 08:21:00,72.7,70.2,29.92,NW,311,1.0,1.0,92,0.00,,,0.00,WeatherCatV1.21B27,2013-08-09 12:21:00,
2013-08-09 08:26:00,72.7,70.2,29.92,WNW,298,0.0,0.0,92,0.00,,,0.00,WeatherCatV1.21B27,2013-08-09 12:26:00,
2013-08-09 08:31:00,72.7,70.2,29.92,WNW,298,0.0,1.0,92,0.00,,,0.00,WeatherCatV1.21B27,2013-08-09 12:31:00,
2013-08-09 08:36:00,72.7,70.2,29.92,WSW,241,0.0,1.0,92,0.00,,,0.00,WeatherCatV1.21B27,2013-08-09 12:36:00,
2013-08-09 08:41:00,72.6,70.1,29.92,SSE,153,0.0,1.0,92,0.00,,,0.01,WeatherCatV1.21B27,2013-08-09 12:41:00,
2013-08-09 08:46:00,72.6,70.1,29.91,SW,225,0.0,1.0,92,0.00,,,0.01,WeatherCatV1.21B27,2013-08-09 12:46:00,
2013-08-09 08:51:00,72.5,70.0,29.92,SSW,208,0.0,0.0,92,0.00,,,0.01,WeatherCatV1.21B27,2013-08-09 12:51:00,
2013-08-09 08:56:00,72.5,70.3,29.92,SW,233,0.0,2.0,93,0.00,,,0.01,WeatherCatV1.21B27,2013-08-09 12:56:00,
2013-08-09 09:01:00,72.4,70.2,29.91,SE,144,0.0,3.0,93,0.00,,,0.02,WeatherCatV1.21B27,2013-08-09 13:01:00,
2013-08-09 09:06:00,72.3,70.5,29.91,SSW,213,0.0,0.0,94,0.10,,,0.03,WeatherCatV1.21B27,2013-08-09 13:06:00,
2013-08-09 09:11:00,72.2,70.4,29.91,SSE,157,0.0,1.0,94,0.08,,,0.03,WeatherCatV1.21B27,2013-08-09 13:11:00,
2013-08-09 09:16:00,72.2,70.4,29.91,SE,124,0.0,1.0,94,0.05,,,0.03,WeatherCatV1.21B27,2013-08-09 13:16:00,
2013-08-09 09:21:00,72.1,70.3,29.91,ESE,123,0.0,3.0,94,0.00,,,0.03,WeatherCatV1.21B27,2013-08-09 13:21:00,
2013-08-09 09:26:00,72.1,70.3,29.91,ESE,117,0.0,1.0,94,0.00,,,0.04,WeatherCatV1.21B27,2013-08-09 13:26:00,
2013-08-09 09:31:00,72.0,70.5,29.91,SE,125,1.0,2.0,95,0.00,,,0.04,WeatherCatV1.21B27,2013-08-09 13:31:00,
2013-08-09 09:36:00,72.1,70.6,29.91,South,172,0.0,2.0,95,0.07,,,0.05,WeatherCatV1.21B27,2013-08-09 13:36:00,
2013-08-09 09:41:00,72.1,70.6,29.90,SSE,151,0.0,1.0,95,0.07,,,0.05,WeatherCatV1.21B27,2013-08-09 13:41:00,
2013-08-09 09:46:00,72.1,70.6,29.90,SE,127,4.0,4.0,95,0.05,,,0.05,WeatherCatV1.21B27,2013-08-09 13:46:00,
2013-08-09 09:51:00,72.2,70.7,29.90,SSE,151,0.0,1.0,95,0.00,,,0.05,WeatherCatV1.21B27,2013-08-09 13:51:00,
2013-08-09 09:56:00,72.2,70.7,29.90,SSE,147,0.0,0.0,95,0.00,,,0.05,WeatherCatV1.21B27,2013-08-09 13:56:00,
2013-08-09 10:01:00,72.2,70.7,29.90,SSE,148,0.0,1.0,95,0.00,,,0.05,WeatherCatV1.21B27,2013-08-09 14:01:00,
2013-08-09 10:03:00,72.3,70.8,29.90,ESE,120,2.0,2.0,95,0.00,,,0.05,WeatherCatV1.21B27,2013-08-09 14:03:00,
2013-08-09 10:08:00,72.3,70.8,29.90,West,259,1.0,2.0,95,0.00,,,0.05,WeatherCatV1.21B27,2013-08-09 14:08:00,
2013-08-09 10:13:00,72.3,70.8,29.90,South,171,2.0,4.0,95,0.00,,,0.05,WeatherCatV1.21B27,2013-08-09 14:13:00,
2013-08-09 10:18:00,72.3,70.8,29.89,SE,127,0.0,0.0,95,0.00,,,0.06,WeatherCatV1.21B27,2013-08-09 14:18:00,
2013-08-09 10:23:00,72.4,70.9,29.89,South,182,1.0,1.0,95,0.18,,,0.07,WeatherCatV1.21B27,2013-08-09 14:23:00,
2013-08-09 10:28:00,72.4,71.2,29.89,South,182,0.0,0.0,96,0.08,,,0.07,WeatherCatV1.21B27,2013-08-09 14:28:00,
2013-08-09 10:33:00,72.4,71.2,29.89,South,182,0.0,1.0,96,0.05,,,0.07,WeatherCatV1.21B27,2013-08-09 14:33:00,
2013-08-09 10:38:00,72.5,71.3,29.88,South,182,0.0,1.0,96,0.00,,,0.08,WeatherCatV1.21B27,2013-08-09 14:38:00,
2013-08-09 10:43:00,72.5,71.3,29.88,South,181,0.0,2.0,96,0.20,,,0.09,WeatherCatV1.21B27,2013-08-09 14:43:00,
2013-08-09 10:48:00,72.5,71.3,29.88,SE,140,0.0,2.0,96,0.13,,,0.11,WeatherCatV1.21B27,2013-08-09 14:48:00,
2013-08-09 10:53:00,72.5,71.3,29.88,South,172,2.0,3.0,96,0.11,,,0.11,WeatherCatV1.21B27,2013-08-09 14:53:00,
2013-08-09 10:58:00,72.5,71.3,29.88,SSE,162,1.0,3.0,96,0.06,,,0.11,WeatherCatV1.21B27,2013-08-09 14:58:00,
2013-08-09 11:03:00,72.5,71.3,29.87,South,174,0.0,1.0,96,0.04,,,0.11,WeatherCatV1.21B27,2013-08-09 15:03:00,
2013-08-09 11:08:00,72.6,71.4,29.87,ESE,118,1.0,3.0,96,0.04,,,0.12,WeatherCatV1.21B27,2013-08-09 15:08:00,
2013-08-09 11:13:00,72.6,71.4,29.87,ESE,118,1.0,2.0,96,0.04,,,0.12,WeatherCatV1.21B27,2013-08-09 15:13:00,
2013-08-09 11:18:00,72.6,71.4,29.87,ESE,113,2.0,2.0,96,0.04,,,0.12,WeatherCatV1.21B27,2013-08-09 15:18:00,
2013-08-09 11:23:00,72.7,71.5,29.86,SE,138,1.0,2.0,96,0.04,,,0.13,WeatherCatV1.21B27,2013-08-09 15:23:00,
2013-08-09 11:28:00,72.7,71.5,29.86,SE,140,2.0,5.0,96,0.04,,,0.13,WeatherCatV1.21B27,2013-08-09 15:28:00,
2013-08-09 11:33:00,72.7,71.5,29.86,SSE,161,2.0,2.0,96,0.04,,,0.13,WeatherCatV1.21B27,2013-08-09 15:33:00,
2013-08-09 11:38:00,72.7,71.5,29.86,South,186,1.0,3.0,96,0.17,,,0.15,WeatherCatV1.21B27,2013-08-09 15:38:00,
2013-08-09 11:43:00,72.7,71.5,29.86,ESE,115,2.0,3.0,96,0.51,,,0.18,WeatherCatV1.21B27,2013-08-09 15:43:00,
2013-08-09 11:48:00,72.6,71.4,29.86,SSE,165,5.0,6.0,96,0.83,,,0.27,WeatherCatV1.21B27,2013-08-09 15:48:00,
2013-08-09 11:53:00,72.5,71.3,29.86,SE,146,0.0,2.0,96,0.54,,,0.31,WeatherCatV1.21B27,2013-08-09 15:53:00,
2013-08-09 11:54:00,72.5,71.3,29.86,SE,146,0.0,2.0,96,0.54,,,0.31,WeatherCatV1.21B27,2013-08-09 15:54:00,
2013-08-09 11:59:00,72.3,71.1,29.86,WSW,245,0.0,3.0,96,0.98,,,0.35,WeatherCatV1.21B27,2013-08-09 15:59:00,
2013-08-09 12:04:00,72.1,70.9,29.85,SE,132,0.0,2.0,96,0.51,,,0.41,WeatherCatV1.21B27,2013-08-09 16:04:00,
2013-08-09 12:09:00,71.9,70.7,29.85,SSW,198,1.0,2.0,96,0.27,,,0.45,WeatherCatV1.21B27,2013-08-09 16:09:00,
2013-08-09 12:14:00,71.8,70.6,29.85,ESE,118,1.0,4.0,96,0.21,,,0.47,WeatherCatV1.21B27,2013-08-09 16:14:00,
2013-08-09 12:19:00,71.8,70.6,29.85,SSE,159,1.0,2.0,96,0.12,,,0.48,WeatherCatV1.21B27,2013-08-09 16:19:00,
2013-08-09 12:24:00,71.8,70.6,29.84,SE,130,3.0,4.0,96,0.83,,,0.55,WeatherCatV1.21B27,2013-08-09 16:24:00,
2013-08-09 12:29:00,71.7,70.5,29.84,South,173,0.0,5.0,96,0.15,,,0.56,WeatherCatV1.21B27,2013-08-09 16:29:00,
2013-08-09 12:34:00,71.7,70.5,29.84,SSE,166,5.0,7.0,96,0.13,,,0.57,WeatherCatV1.21B27,2013-08-09 16:34:00,
2013-08-09 12:39:00,71.5,70.3,29.83,South,169,3.0,5.0,96,0.71,,,0.61,WeatherCatV1.21B27,2013-08-09 16:39:00,
2013-08-09 12:44:00,71.3,69.8,29.84,SE,128,2.0,4.0,95,0.55,,,0.65,WeatherCatV1.21B27,2013-08-09 16:44:00,
2013-08-09 12:49:00,71.2,70.0,29.84,SSE,160,0.0,1.0,96,0.24,,,0.67,WeatherCatV1.21B27,2013-08-09 16:49:00,
2013-08-09 12:54:00,71.2,70.0,29.83,South,176,1.0,2.0,96,0.12,,,0.68,WeatherCatV1.21B27,2013-08-09 16:54:00,
2013-08-09 12:59:00,71.3,70.1,29.83,SSE,157,0.0,5.0,96,0.11,,,0.69,WeatherCatV1.21B27,2013-08-09 16:59:00,
2013-08-09 13:04:00,71.5,70.3,29.83,SE,132,2.0,4.0,96,0.08,,,0.69,WeatherCatV1.21B27,2013-08-09 17:04:00,
2013-08-09 13:09:00,71.4,70.2,29.82,SSE,155,1.0,3.0,96,0.07,,,0.70,WeatherCatV1.21B27,2013-08-09 17:09:00,
2013-08-09 13:14:00,71.4,70.2,29.82,SE,128,0.0,5.0,96,0.07,,,0.70,WeatherCatV1.21B27,2013-08-09 17:14:00,
2013-08-09 13:19:00,71.4,70.2,29.82,SE,127,0.0,4.0,96,0.07,,,0.71,WeatherCatV1.21B27,2013-08-09 17:19:00,
2013-08-09 13:24:00,71.5,70.3,29.81,South,175,0.0,5.0,96,0.06,,,0.71,WeatherCatV1.21B27,2013-08-09 17:24:00,
2013-08-09 13:29:00,71.5,70.3,29.81,SSE,168,2.0,3.0,96,0.05,,,0.72,WeatherCatV1.21B27,2013-08-09 17:29:00,
2013-08-09 13:34:00,71.5,70.3,29.81,SE,131,3.0,4.0,96,0.14,,,0.73,WeatherCatV1.21B27,2013-08-09 17:34:00,
2013-08-09 13:39:00,71.5,70.0,29.80,South,175,2.0,7.0,95,0.06,,,0.73,WeatherCatV1.21B27,2013-08-09 17:39:00,
2013-08-09 13:44:00,71.5,70.0,29.80,SSE,148,2.0,3.0,95,0.04,,,0.74,WeatherCatV1.21B27,2013-08-09 17:44:00,
2013-08-09 13:49:00,71.5,70.3,29.80,South,177,0.0,3.0,96,0.12,,,0.75,WeatherCatV1.21B27,2013-08-09 17:49:00,
2013-08-09 13:54:00,71.5,70.3,29.80,South,171,0.0,2.0,96,0.11,,,0.75,WeatherCatV1.21B27,2013-08-09 17:54:00,
2013-08-09 13:59:00,71.5,70.3,29.80,ESE,114,0.0,5.0,96,0.07,,,0.76,WeatherCatV1.21B27,2013-08-09 17:59:00,
2013-08-09 14:04:00,71.6,70.4,29.80,SSE,161,1.0,3.0,96,0.18,,,0.77,WeatherCatV1.21B27,2013-08-09 18:04:00,
2013-08-09 14:09:00,71.6,70.4,29.80,ESE,117,0.0,3.0,96,0.07,,,0.77,WeatherCatV1.21B27,2013-08-09 18:09:00,
2013-08-09 14:14:00,71.6,70.4,29.79,SSE,152,3.0,5.0,96,0.05,,,0.78,WeatherCatV1.21B27,2013-08-09 18:14:00,
2013-08-09 14:19:00,71.6,70.4,29.79,SE,136,0.0,2.0,96,0.13,,,0.79,WeatherCatV1.21B27,2013-08-09 18:19:00,
2013-08-09 14:24:00,71.6,70.4,29.78,SE,130,0.0,2.0,96,0.06,,,0.79,WeatherCatV1.21B27,2013-08-09 18:24:00,
2013-08-09 14:29:00,71.6,70.4,29.78,SSE,148,1.0,3.0,96,0.04,,,0.79,WeatherCatV1.21B27,2013-08-09 18:29:00,
2013-08-09 14:34:00,71.6,70.4,29.78,East,101,0.0,2.0,96,0.00,,,0.79,WeatherCatV1.21B27,2013-08-09 18:34:00,
2013-08-09 14:39:00,71.6,70.4,29.78,SSE,153,1.0,2.0,96,0.00,,,0.79,WeatherCatV1.21B27,2013-08-09 18:39:00,
2013-08-09 14:44:00,71.6,70.4,29.78,South,169,3.0,5.0,96,0.00,,,0.79,WeatherCatV1.21B27,2013-08-09 18:44:00,
2013-08-09 14:49:00,71.6,70.7,29.77,SSE,166,0.0,3.0,97,0.00,,,0.79,WeatherCatV1.21B27,2013-08-09 18:49:00,
2013-08-09 14:54:00,71.5,70.6,29.77,ESE,120,1.0,3.0,97,0.00,,,0.79,WeatherCatV1.21B27,2013-08-09 18:54:00,
2013-08-09 14:59:00,71.5,70.6,29.76,SSE,159,2.0,3.0,97,0.00,,,0.79,WeatherCatV1.21B27,2013-08-09 18:59:00,
2013-08-09 15:04:00,71.5,70.6,29.76,SE,134,2.0,3.0,97,0.00,,,0.79,WeatherCatV1.21B27,2013-08-09 19:04:00,
2013-08-09 15:09:00,71.4,70.5,29.75,SSE,161,0.0,0.0,97,0.00,,,0.79,WeatherCatV1.21B27,2013-08-09 19:09:00,
2013-08-09 15:14:00,71.4,70.5,29.75,SSE,161,0.0,0.0,97,0.00,,,0.79,WeatherCatV1.21B27,2013-08-09 19:14:00,
2013-08-09 15:19:00,71.4,70.5,29.74,South,175,1.0,3.0,97,0.00,,,0.79,WeatherCatV1.21B27,2013-08-09 19:19:00,
2013-08-09 15:24:00,71.4,70.5,29.73,South,174,1.0,1.0,97,0.00,,,0.79,WeatherCatV1.21B27,2013-08-09 19:24:00,
2013-08-09 15:29:00,71.4,70.5,29.73,ESE,115,3.0,6.0,97,0.00,,,0.80,WeatherCatV1.21B27,2013-08-09 19:29:00,
2013-08-09 15:34:00,71.4,70.5,29.72,East,99,0.0,3.0,97,0.18,,,0.81,WeatherCatV1.21B27,2013-08-09 19:34:00,
2013-08-09 15:39:00,71.5,70.6,29.72,South,171,0.0,3.0,97,0.07,,,0.81,WeatherCatV1.21B27,2013-08-09 19:39:00,
2013-08-09 15:44:00,71.4,70.5,29.72,South,181,1.0,2.0,97,0.04,,,0.81,WeatherCatV1.21B27,2013-08-09 19:44:00,
2013-08-09 15:49:00,71.5,70.6,29.72,South,182,0.0,1.0,97,0.00,,,0.81,WeatherCatV1.21B27,2013-08-09 19:49:00,
2013-08-09 15:54:00,71.5,70.6,29.72,SE,146,1.0,3.0,97,0.00,,,0.81,WeatherCatV1.21B27,2013-08-09 19:54:00,
2013-08-09 15:59:00,71.6,70.7,29.71,South,170,1.0,4.0,97,0.00,,,0.81,WeatherCatV1.21B27,2013-08-09 19:59:00,
2013-08-09 16:04:00,71.8,70.9,29.71,SSE,158,0.0,3.0,97,0.00,,,0.81,WeatherCatV1.21B27,2013-08-09 20:04:00,
2013-08-09 16:09:00,71.9,71.0,29.71,SSE,159,0.0,2.0,97,0.00,,,0.81,WeatherCatV1.21B27,2013-08-09 20:09:00,
2013-08-09 16:14:00,72.3,71.4,29.70,ESE,123,0.0,8.0,97,0.00,,,0.82,WeatherCatV1.21B27,2013-08-09 20:14:00,
2013-08-09 16:19:00,72.5,71.6,29.70,South,174,1.0,4.0,97,0.08,,,0.83,WeatherCatV1.21B27,2013-08-09 20:19:00,
2013-08-09 16:24:00,72.7,71.8,29.70,WSW,237,3.0,5.0,97,0.08,,,0.83,WeatherCatV1.21B27,2013-08-09 20:24:00,
2013-08-09 16:29:00,73.0,72.1,29.70,South,177,5.0,6.0,97,0.05,,,0.83,WeatherCatV1.21B27,2013-08-09 20:29:00,
2013-08-09 16:34:00,73.0,72.1,29.70,SE,141,1.0,4.0,97,0.04,,,0.83,WeatherCatV1.21B27,2013-08-09 20:34:00,
2013-08-09 16:39:00,73.1,72.2,29.70,SE,133,2.0,6.0,97,0.00,,,0.83,WeatherCatV1.21B27,2013-08-09 20:39:00,
2013-08-09 16:44:00,73.3,72.1,29.70,East,96,1.0,3.0,96,0.00,,,0.83,WeatherCatV1.21B27,2013-08-09 20:44:00,
2013-08-09 16:49:00,73.3,72.1,29.69,SE,127,2.0,5.0,96,0.00,,,0.83,WeatherCatV1.21B27,2013-08-09 20:49:00,
2013-08-09 16:54:00,73.4,72.2,29.70,South,170,0.0,11.0,96,0.00,,,0.83,WeatherCatV1.21B27,2013-08-09 20:54:00,
2013-08-09 16:59:00,73.4,72.2,29.70,SE,140,2.0,6.0,96,0.00,,,0.83,WeatherCatV1.21B27,2013-08-09 20:59:00,
2013-08-09 17:04:00,73.4,72.2,29.69,South,182,0.0,0.0,96,0.00,,,0.83,WeatherCatV1.21B27,2013-08-09 21:04:00,
2013-08-09 17:09:00,73.4,72.2,29.69,South,181,2.0,7.0,96,0.00,,,0.83,WeatherCatV1.21B27,2013-08-09 21:09:00,
2013-08-09 17:14:00,73.5,72.3,29.70,SSE,148,0.0,5.0,96,0.00,,,0.83,WeatherCatV1.21B27,2013-08-09 21:14:00,
2013-08-09 17:19:00,73.5,72.3,29.70,ESE,110,2.0,4.0,96,0.00,,,0.83,WeatherCatV1.21B27,2013-08-09 21:19:00,
2013-08-09 17:24:00,73.5,72.3,29.70,ESE,121,2.0,3.0,96,0.00,,,0.83,WeatherCatV1.21B27,2013-08-09 21:24:00,
2013-08-09 17:29:00,73.5,72.3,29.69,South,190,0.0,3.0,96,0.00,,,0.83,WeatherCatV1.21B27,2013-08-09 21:29:00,
2013-08-09 17:34:00,73.5,72.3,29.69,SW,219,0.0,2.0,96,0.27,,,0.85,WeatherCatV1.21B27,2013-08-09 21:34:00,
2013-08-09 17:39:00,73.5,72.3,29.69,SSE,159,0.0,5.0,96,0.11,,,0.85,WeatherCatV1.21B27,2013-08-09 21:39:00,
2013-08-09 17:44:00,73.6,72.4,29.70,ESE,122,0.0,2.0,96,0.09,,,0.86,WeatherCatV1.21B27,2013-08-09 21:44:00,
2013-08-09 17:49:00,73.6,72.4,29.69,SSE,166,1.0,7.0,96,0.07,,,0.86,WeatherCatV1.21B27,2013-08-09 21:49:00,
2013-08-09 17:54:00,73.7,72.8,29.70,East,100,5.0,6.0,97,0.04,,,0.86,WeatherCatV1.21B27,2013-08-09 21:54:00,
2013-08-09 17:59:00,73.8,72.9,29.69,SE,134,0.0,3.0,97,0.00,,,0.86,WeatherCatV1.21B27,2013-08-09 21:59:00,
2013-08-09 18:04:00,73.8,72.9,29.69,SE,129,3.0,3.0,97,0.00,,,0.86,WeatherCatV1.21B27,2013-08-09 22:04:00,
2013-08-09 18:09:00,73.9,73.0,29.69,South,172,1.0,5.0,97,0.00,,,0.86,WeatherCatV1.21B27,2013-08-09 22:09:00,
2013-08-09 18:14:00,74.0,73.1,29.69,SE,140,0.0,2.0,97,0.00,,,0.86,WeatherCatV1.21B27,2013-08-09 22:14:00,
2013-08-09 18:19:00,74.1,73.2,29.69,West,259,0.0,5.0,97,0.00,,,0.86,WeatherCatV1.21B27,2013-08-09 22:19:00,
2013-08-09 18:24:00,74.0,72.8,29.69,ESE,119,2.0,8.0,96,0.00,,,0.86,WeatherCatV1.21B27,2013-08-09 22:24:00,
2013-08-09 18:29:00,74.0,72.8,29.69,SE,142,1.0,3.0,96,0.00,,,0.86,WeatherCatV1.21B27,2013-08-09 22:29:00,
2013-08-09 18:34:00,74.0,72.8,29.70,WSW,253,0.0,2.0,96,0.00,,,0.86,WeatherCatV1.21B27,2013-08-09 22:34:00,
2013-08-09 18:39:00,74.1,72.9,29.70,ESE,114,0.0,1.0,96,0.00,,,0.86,WeatherCatV1.21B27,2013-08-09 22:39:00,
2013-08-09 18:44:00,74.1,72.9,29.70,SW,215,0.0,2.0,96,0.00,,,0.86,WeatherCatV1.21B27,2013-08-09 22:44:00,
2013-08-09 18:49:00,74.1,72.9,29.69,WSW,246,0.0,4.0,96,0.00,,,0.86,WeatherCatV1.21B27,2013-08-09 22:49:00,
2013-08-09 18:54:00,74.1,72.9,29.69,ESE,110,0.0,2.0,96,0.00,,,0.86,WeatherCatV1.21B27,2013-08-09 22:54:00,
2013-08-09 18:59:00,74.1,72.9,29.69,South,170,0.0,2.0,96,0.00,,,0.86,WeatherCatV1.21B27,2013-08-09 22:59:00,
2013-08-09 19:04:00,74.2,73.0,29.69,WNW,286,0.0,8.0,96,0.00,,,0.86,WeatherCatV1.21B27,2013-08-09 23:04:00,
2013-08-09 19:09:00,74.2,73.0,29.69,SW,230,0.0,5.0,96,0.00,,,0.86,WeatherCatV1.21B27,2013-08-09 23:09:00,
2013-08-09 19:14:00,74.2,73.0,29.69,SSE,161,0.0,2.0,96,0.00,,,0.86,WeatherCatV1.21B27,2013-08-09 23:14:00,
2013-08-09 19:19:00,74.2,73.0,29.69,SSE,163,0.0,2.0,96,0.00,,,0.86,WeatherCatV1.21B27,2013-08-09 23:19:00,
2013-08-09 19:24:00,74.2,73.0,29.70,WSW,258,0.0,5.0,96,0.00,,,0.86,WeatherCatV1.21B27,2013-08-09 23:24:00,
2013-08-09 19:29:00,74.2,73.0,29.70,West,269,0.0,1.0,96,0.00,,,0.86,WeatherCatV1.21B27,2013-08-09 23:29:00,
2013-08-09 19:34:00,74.2,73.0,29.70,SSW,213,0.0,2.0,96,0.00,,,0.86,WeatherCatV1.21B27,2013-08-09 23:34:00,
2013-08-09 19:39:00,74.1,72.9,29.70,SSE,151,2.0,3.0,96,0.00,,,0.86,WeatherCatV1.21B27,2013-08-09 23:39:00,
2013-08-09 19:44:00,74.1,72.9,29.70,WSW,249,0.0,1.0,96,0.00,,,0.86,WeatherCatV1.21B27,2013-08-09 23:44:00,
2013-08-09 19:49:00,74.1,72.9,29.70,SSE,160,0.0,1.0,96,0.00,,,0.86,WeatherCatV1.21B27,2013-08-09 23:49:00,
2013-08-09 19:54:00,74.0,72.8,29.70,WSW,250,1.0,2.0,96,0.00,,,0.86,WeatherCatV1.21B27,2013-08-09 23:54:00,
2013-08-09 19:59:00,74.0,72.8,29.70,SW,225,0.0,0.0,96,0.00,,,0.86,WeatherCatV1.21B27,2013-08-09 23:59:00,
2013-08-09 20:04:00,74.0,72.8,29.71,WSW,245,1.0,5.0,96,0.00,,,0.86,WeatherCatV1.21B27,2013-08-10 00:04:00,
2013-08-09 20:09:00,74.0,72.8,29.71,South,170,1.0,2.0,96,0.00,,,0.86,WeatherCatV1.21B27,2013-08-10 00:09:00,
2013-08-09 20:14:00,74.0,73.1,29.71,South,169,0.0,6.0,97,0.00,,,0.86,WeatherCatV1.21B27,2013-08-10 00:14:00,
2013-08-09 20:19:00,74.0,73.1,29.71,West,259,0.0,6.0,97,0.00,,,0.86,WeatherCatV1.21B27,2013-08-10 00:19:00,
2013-08-09 20:24:00,74.0,73.1,29.71,SSE,165,0.0,3.0,97,0.00,,,0.86,WeatherCatV1.21B27,2013-08-10 00:24:00,
2013-08-09 20:29:00,74.0,73.1,29.71,SSE,161,0.0,2.0,97,0.00,,,0.86,WeatherCatV1.21B27,2013-08-10 00:29:00,
2013-08-09 20:34:00,74.0,73.1,29.72,SSE,159,0.0,1.0,97,0.00,,,0.86,WeatherCatV1.21B27,2013-08-10 00:34:00,
2013-08-09 20:39:00,74.0,73.1,29.72,WSW,244,0.0,6.0,97,0.00,,,0.86,WeatherCatV1.21B27,2013-08-10 00:39:00,
2013-08-09 20:44:00,73.9,73.0,29.72,SE,136,0.0,2.0,97,0.00,,,0.86,WeatherCatV1.21B27,2013-08-10 00:44:00,
2013-08-09 20:49:00,73.9,73.0,29.72,SW,215,0.0,2.0,97,0.00,,,0.86,WeatherCatV1.21B27,2013-08-10 00:49:00,
2013-08-09 20:53:00,73.9,73.0,29.72,WSW,246,0.0,1.0,97,0.00,,,0.86,WeatherCatV1.21B27,2013-08-10 00:53:00,
2013-08-09 20:58:00,73.8,72.9,29.72,SW,233,0.0,0.0,97,0.00,,,0.86,WeatherCatV1.21B27,2013-08-10 00:58:00,
2013-08-09 21:03:00,73.8,72.9,29.72,SW,233,0.0,0.0,97,0.00,,,0.86,WeatherCatV1.21B27,2013-08-10 01:03:00,
2013-08-09 21:08:00,73.8,72.9,29.73,West,273,0.0,3.0,97,0.00,,,0.86,WeatherCatV1.21B27,2013-08-10 01:08:00,
2013-08-09 21:13:00,73.8,72.9,29.73,WSW,251,0.0,5.0,97,0.00,,,0.86,WeatherCatV1.21B27,2013-08-10 01:13:00,
2013-08-09 21:18:00,73.7,72.8,29.73,WSW,254,0.0,1.0,97,0.00,,,0.86,WeatherCatV1.21B27,2013-08-10 01:18:00,
2013-08-09 21:23:00,73.7,72.8,29.73,WSW,252,0.0,1.0,97,0.00,,,0.86,WeatherCatV1.21B27,2013-08-10 01:23:00,
2013-08-09 21:28:00,73.7,72.8,29.73,ESE,121,2.0,2.0,97,0.00,,,0.86,WeatherCatV1.21B27,2013-08-10 01:28:00,
2013-08-09 21:33:00,73.7,72.8,29.72,South,191,0.0,1.0,97,0.00,,,0.86,WeatherCatV1.21B27,2013-08-10 01:33:00,
2013-08-09 21:38:00,73.6,72.7,29.72,WSW,239,0.0,1.0,97,0.00,,,0.86,WeatherCatV1.21B27,2013-08-10 01:38:00,
2013-08-09 21:43:00,73.6,72.7,29.72,WSW,239,0.0,0.0,97,0.00,,,0.86,WeatherCatV1.21B27,2013-08-10 01:43:00,
2013-08-09 21:48:00,73.6,72.7,29.71,WSW,248,0.0,2.0,97,0.00,,,0.86,WeatherCatV1.21B27,2013-08-10 01:48:00,
2013-08-09 21:53:00,73.5,72.6,29.71,West,275,0.0,1.0,97,0.00,,,0.86,WeatherCatV1.21B27,2013-08-10 01:53:00,
2013-08-09 21:58:00,73.5,72.6,29.71,WNW,283,0.0,0.0,97,0.00,,,0.86,WeatherCatV1.21B27,2013-08-10 01:58:00,
2013-08-09 22:03:00,73.5,72.6,29.71,SW,223,0.0,0.0,97,0.00,,,0.86,WeatherCatV1.21B27,2013-08-10 02:03:00,
2013-08-09 22:08:00,73.5,72.6,29.71,West,266,2.0,2.0,97,0.00,,,0.86,WeatherCatV1.21B27,2013-08-10 02:08:00,
2013-08-09 22:13:00,73.5,72.6,29.71,SW,236,0.0,0.0,97,0.00,,,0.86,WeatherCatV1.21B27,2013-08-10 02:13:00,
2013-08-09 22:18:00,73.5,72.6,29.72,WSW,238,0.0,2.0,97,0.00,,,0.86,WeatherCatV1.21B27,2013-08-10 02:18:00,
2013-08-09 22:23:00,73.5,72.6,29.72,South,181,0.0,6.0,97,0.00,,,0.86,WeatherCatV1.21B27,2013-08-10 02:23:00,
2013-08-09 22:28:00,73.5,72.6,29.72,SW,224,0.0,6.0,97,0.00,,,0.86,WeatherCatV1.21B27,2013-08-10 02:28:00,
2013-08-09 22:33:00,73.4,72.5,29.72,SW,224,0.0,1.0,97,0.00,,,0.86,WeatherCatV1.21B27,2013-08-10 02:33:00,
2013-08-09 22:38:00,73.4,72.5,29.72,WSW,253,2.0,2.0,97,0.00,,,0.86,WeatherCatV1.21B27,2013-08-10 02:38:00,
2013-08-09 22:43:00,73.4,72.5,29.72,WSW,242,0.0,1.0,97,0.00,,,0.86,WeatherCatV1.21B27,2013-08-10 02:43:00,
2013-08-09 22:48:00,73.3,72.4,29.72,WSW,242,0.0,0.0,97,0.00,,,0.86,WeatherCatV1.21B27,2013-08-10 02:48:00,
2013-08-09 22:53:00,73.3,72.4,29.72,West,262,0.0,1.0,97,0.00,,,0.86,WeatherCatV1.21B27,2013-08-10 02:53:00,
2013-08-09 22:58:00,73.3,72.4,29.72,SW,221,0.0,0.0,97,0.00,,,0.86,WeatherCatV1.21B27,2013-08-10 02:58:00,
2013-08-09 23:03:00,73.3,72.4,29.73,SW,231,2.0,4.0,97,0.00,,,0.86,WeatherCatV1.21B27,2013-08-10 03:03:00,
2013-08-09 23:08:00,73.3,72.4,29.73,SW,231,0.0,2.0,97,0.00,,,0.86,WeatherCatV1.21B27,2013-08-10 03:08:00,
2013-08-09 23:13:00,73.2,72.3,29.73,SW,231,0.0,0.0,97,0.00,,,0.86,WeatherCatV1.21B27,2013-08-10 03:13:00,
2013-08-09 23:18:00,73.1,72.2,29.73,SW,231,0.0,0.0,97,0.00,,,0.86,WeatherCatV1.21B27,2013-08-10 03:18:00,
2013-08-09 23:23:00,73.0,72.1,29.72,SW,231,0.0,0.0,97,0.00,,,0.86,WeatherCatV1.21B27,2013-08-10 03:23:00,
2013-08-09 23:28:00,73.0,72.4,29.72,SW,231,0.0,0.0,98,0.00,,,0.86,WeatherCatV1.21B27,2013-08-10 03:28:00,
2013-08-09 23:33:00,73.0,72.4,29.73,SW,231,0.0,0.0,98,0.00,,,0.86,WeatherCatV1.21B27,2013-08-10 03:33:00,
2013-08-09 23:38:00,72.9,72.0,29.72,SW,231,0.0,0.0,97,0.00,,,0.86,WeatherCatV1.21B27,2013-08-10 03:38:00,
2013-08-09 23:43:00,72.9,72.0,29.72,SW,231,0.0,0.0,97,0.00,,,0.86,WeatherCatV1.21B27,2013-08-10 03:43:00,
2013-08-09 23:48:00,72.8,71.9,29.73,SW,231,0.0,0.0,97,0.00,,,0.86,WeatherCatV1.21B27,2013-08-10 03:48:00,
2013-08-09 23:53:00,72.8,71.9,29.73,SW,231,0.0,0.0,97,0.00,,,0.86,WeatherCatV1.21B27,2013-08-10 03:53:00,
2013-08-09 23:58:00,72.8,71.9,29.73,SW,231,0.0,0.0,97,0.00,,,0.86,WeatherCatV1.21B27,2013-08-10 03:58:00,